SCP
1 1 1 1 1 1 0 0 0 0 0 0 0 0 0 0 0 0 0 0 0 0 0 0 0 0 0 0 0 0 0 0 0 0 0 0 0 0 0 0 0 0 0
0 0 0 0 0 0 0 0 0 0 0 0 0 0 0 0 0 0 0 0 0 0 0 0 0 0 0 0 0 0 0 0 0 0 0 0 0 0 0 0 0 0 0
0 0 0 0 0 0 0 0 0 0 0 0 0 0 0 0 0 0 0 0 1 1 1 0 0 0 0 0 0 0 0 0 0 0 0 0 0 0 0 0 0 0 0
0 0 0 0 0 0 0 0 0 0 0 0 0 0 0 0 0 0 0 0 0 0 0 1 0 0 0 0 0 0 0 0 0 0 0 0 0 0 0 0 0 0 0
0 0 0 0 0 0 0 0 0 0 0 0 0 0 0 0 0 0 0 0 0 0 0 0 0 0 0 0 0 0 0 0 0 0 0 0 0 0 0 0 0 0 0
0 0 0 0 0 0 0 0 0 0 0 0 0 0 0 0 0 0 0 0 0 0 0 0 0 0 0 0 0 0 0 0 0 0 0 0 0 0 0 0 0 0 0
0 0 0 0 0 0 0 0 0 0 0 0 0 0 0 0 0 0 0 0 0 0 0 0 0 0 0 0 0 0 0 0 0 0 0 0 0 0 0 0 0 0 0
0 0 0 0 0 0 0 0 0 0 0 0 0 0 0 0 0 0 0 0 0 0 0 0 0 0 0 0 0 0 0 0 0 0 0 0 0 0 0 0 0 0 0
0 0 0 0 0 0 0 0 0 0 0 0 0 0 0 0 0 0 0 0 0 0 0 0 0 0 0 0 0 0 0 0 0 0 0 0 0 0 0 0 0 0 0
0 0 0 0 0 0 0 0 0 0 0 0 0 0 0 0 0 0 0 0 0 0 0 0 0 0 0 0 0 0 0 0 0 0 0 0 0 0 0 0 0 0 0
0 0 0 0 0 0 0 0 0 0 0 0 0 0 0 0 0 0 0 0 0 0 0 0 0 0 0 0 0 0 0 0 0 0 0 0 0 0 0 0 0 0 0
0 0 0 0 0 0 0 0 0 0 0 0 0 0 0 0 0 0 0 0 0 0 0 0 0 0 0 0 0 0 0 0 0 0 0 0 0 0 0 0 0 0 0
0 0 0 0 0 0 0 0 0 0 0 0 0 0 0 0 0 0 0 0 0 0 0 0 0 0 0 0 0 0 0 0 0 0 0 0 0 0 0 0 0 0 0
0 0 0 0 0 0 0 0 0 0 0 0 0 0 0 0 0 0 0 0 0 0 0 0 0 0 0 0 0 0 0 0 0 0 0 0 0 0 0 0 0 0 0
0 0 0 0 0 0 0 0 0 0 0 0 0 0 0 0 0 0 0 0 0 0 0 0 0 0 0 0 0 0 0 0 0 0 0 0 0 0 0 0 0 0 0
0 0 0 0 0 0 0 0 0 0 0 0 0 0 0 0 0 0 0 0 0 0 0 0 0 0 0 0 0 0 0 0 0 0 0 0 0 0 0 0 0 0 0
0 0 0 0 0 0 0 0 0 0 0 0 0 0 0 0 0 0 0 0 0 0 0 0 0 0 0 0 0 0 0 0 0 0 0 0 0 0 0 0 0 0 0
0 0 0 0 0 0 0 0 0 0 0 0 0 0 0 0 0 0 0 0 0 0 0 0 0 0 0 0 0 0 0 0 0 0 0 0 0 0 0 0 0 0 0
0 0 0 0 0 0 0 0 0 0 0 0 0 0 0 0 0 0 0 0 0 0 0 0 0 0 0 0 0 0 0 0 0 0 0 0 0 0 0 0 0 0 0
0 0 0 0 0 0 0 0 0 0 0 0 0 0 0 0 0 0 0 0 0 0 0 0 0 0 0 0 0 0 0 0 0 0 0 0 0 0 0 0 0 0 0
0 0 0 0 0 0 0 0 0 0 0 0 0 0 0 0 0 0 0 0 0 0 0 0 0 0 0 0 0 0 0 0 0 0 0 0 0 0 0 0 0 0 0
0 0 0 0 0 0 0 0 0 0 0 0 0 0 0 0 0 0 0 0 0 0 0 0 0 0 0 0 0 0 0 0 0 0 0 0 0 0 0 0 0 0 0
0 0 0 0 0 0 0 0 0 0 0 0 0 0 0 0 0 0 0 0 0 0 0 0 0 0 0 0 0 0 0 0 0 0 0 0 0 0 0 0 0 0 0
0 0 0 0 0 0 0 0 0 0 0 0 0 0 0 0 0 0 0 0 0 0 0 0 0 0 0 0 0 0 0 0 0 0 0 0 0 0 0 0 0 0 0
0 0 0 0 0 0 0 0 0 0 0 0 0 0 0 0 0 0 0 0 0 0 0 0 0 0 0 0 0 0 0 0 0 0 0 0 0 0 0 0 0 0 0
0 0 0 0 0 0 0 0 0 0 0 0 0 0 0 0 0 0 0 0 0 0 0 0 0 0 0 0 0 0 0 0 0 0 0 0 0 0 0 0 0 0 0
Wind_Speed
3 3 2 2 2 2 2 2 2 3 3 3 2 2 2 2 2 2 1 4 4 5 5 6 6 6 5 5 5 4 4 4 4 4 3 2 2 1 0 1 1 1 2
3 3 3 3 3 3 2 2 2 2 2 2 2 2 2 2 2 2 2 2 5 6 6 6 6 6 6 6 6 6 7 7 7 7 7 7 7 7 6 5 4 4 3
2 3 2 3 2 2 2 2 2 2 2 2 2 2 2 3 4 4 4 3 4 7 8 8 7 7 8 8 8 9 9 10 10 11 11 11 10 10 10 9 9 8 8
1 2 2 3 2 2 3 3 3 3 2 3 3 2 3 3 5 5 5 5 5 5 7 10 10 10 11 11 11 12 13 13 13 13 12 12 12 11 11 11 10 10 9
2 2 2 2 2 3 3 4 3 3 4 4 4 4 4 4 4 5 6 7 7 6 6 9 13 12 12 12 13 13 14 14 14 14 14 13 13 12 12 12 11 11 10
1 2 2 2 3 3 3 3 4 3 4 5 6 6 5 5 4 5 6 6 7 8 8 8 7 9 14 14 13 13 14 13 13 13 13 13 12 12 12 12 12 12 11
2 1 1 1 1 3 4 5 4 6 4 5 5 5 5 6 6 5 5 5 7 8 8 8 6 6 7 14 14 14 14 14 14 13 13 13 12 12 12 11 11 11 11
3 2 1 0 0 1 3 5 5 5 4 4 4 5 3 3 4 5 5 5 6 6 7 8 8 7 6 5 10 15 14 13 13 13 12 12 11 11 11 11 11 11 10
4 4 3 2 1 1 1 3 5 6 5 3 2 4 5 4 3 3 4 5 5 5 5 6 7 7 7 6 6 11 13 12 12 12 11 10 10 10 10 10 10 10 10
5 5 4 3 2 1 1 2 2 3 5 5 2 1 2 5 5 4 3 4 5 6 5 5 5 6 6 5 6 10 11 11 10 10 9 9 9 9 9 9 10 10 10
6 6 5 5 4 3 3 3 3 3 2 3 3 2 3 3 3 5 5 3 4 4 4 4 3 4 4 4 3 6 8 8 8 8 8 8 8 8 9 9 9 9 9
6 8 7 6 6 5 5 5 5 5 4 5 4 3 3 3 3 4 5 6 4 3 3 3 2 2 2 2 3 5 5 6 6 6 6 7 7 7 7 8 8 9 9
5 7 7 7 6 6 6 7 7 7 6 6 5 3 3 2 3 4 7 6 4 2 2 2 2 1 1 1 2 3 3 4 4 4 4 4 5 5 6 6 7 8 8
5 6 7 7 8 8 8 8 8 7 7 8 8 6 5 4 3 4 5 7 6 3 2 1 1 1 1 1 1 3 2 4 3 3 2 2 3 3 4 5 5 6 7
6 8 8 8 9 9 9 8 7 7 8 8 8 8 6 5 5 4 4 5 6 5 2 0 0 1 1 0 1 1 2 4 4 3 2 1 1 2 2 3 4 4 5
8 8 9 9 9 9 9 9 8 8 10 8 7 9 8 5 6 5 5 4 3 5 4 2 0 1 1 1 2 1 2 4 3 3 2 1 1 1 1 2 3 3 4
8 9 9 9 10 9 9 9 9 9 10 9 8 9 9 7 6 5 5 5 4 4 6 3 1 2 2 2 3 2 2 2 2 3 2 2 1 1 1 1 2 3 3
8 9 9 9 9 9 9 9 10 9 9 9 8 9 8 7 8 6 5 6 5 4 5 5 2 3 3 2 2 2 3 2 2 3 3 2 1 1 1 1 1 2 2
9 9 9 9 8 8 8 8 9 9 9 9 8 9 8 8 8 6 6 6 5 5 5 5 3 2 2 2 2 3 3 3 3 3 3 3 2 2 2 2 2 2 2
8 8 8 8 8 8 8 8 8 9 9 9 8 8 7 7 6 6 6 6 6 6 5 4 3 2 2 2 2 2 2 3 2 3 4 3 3 3 3 3 3 3 3
8 7 8 8 7 7 6 7 7 8 8 8 8 8 8 9 9 5 4 4 5 5 4 4 3 2 2 2 2 2 2 2 2 2 3 2 2 2 2 3 3 3 4
7 8 8 8 8 6 8 9 8 7 7 7 7 7 7 9 10 10 9 7 5 4 4 3 2 1 0 1 1 1 1 2 2 2 3 2 2 2 2 2 4 5 5
7 7 7 7 7 7 9 10 10 7 7 6 6 6 6 7 7 6 8 9 8 6 4 3 2 2 2 2 1 0 0 1 2 2 2 2 2 3 3 3 5 5 5
5 5 6 6 6 7 9 9 10 8 7 7 6 6 5 6 6 5 5 6 5 4 2 1 2 3 3 3 2 1 1 2 3 2 2 2 2 3 3 3 4 5 5
5 5 5 6 6 6 8 8 8 5 6 6 5 5 5 5 6 6 5 5 4 4 3 3 2 3 5 5 4 2 1 1 2 1 1 2 2 3 3 3 3 4 5
4 5 6 6 6 6 7 8 6 4 5 4 4 4 6 5 5 5 4 3 3 3 4 4 3 3 2 1 5 4 2 1 1 2 1 2 2 2 3 3 3 3 3
Wind_Direction
201 202 203 195 200 197 194 194 185 181 178 178 180 179 178 173 174 182 188 190 176 171 169 171 169 167 161 158 154 145 136 125 116 109 111 117 117 98 27 285 279 265 258
204 195 199 201 202 196 196 197 192 184 175 162 159 153 148 137 133 140 134 148 150 142 139 142 141 135 136 132 124 116 108 99 91 86 83 78 73 68 61 56 48 38 25
207 199 195 207 204 190 185 179 179 164 164 150 135 129 119 113 110 104 100 100 105 109 115 115 113 111 110 110 108 102 96 92 87 83 79 75 71 67 63 59 55 49 43
235 225 214 211 200 196 188 191 185 169 157 139 125 110 96 92 92 94 90 84 82 83 90 97 99 102 103 102 100 97 91 87 85 82 78 74 70 66 62 57 52 47 42
259 233 234 227 204 201 195 203 183 163 155 137 117 92 76 75 76 87 85 80 78 79 80 88 90 93 94 94 94 93 91 88 84 82 78 73 67 64 60 56 51 47 43
288 242 231 219 200 201 200 198 169 148 143 131 109 84 67 68 67 73 81 81 79 75 71 72 72 77 84 88 88 90 90 88 84 80 77 72 67 62 58 54 51 47 43
356 293 252 223 201 207 204 184 160 147 140 129 111 98 67 63 63 58 69 78 79 78 75 72 69 65 69 75 79 82 83 83 80 77 74 70 66 61 56 53 50 47 44
13 359 345 348 82 211 198 179 158 151 152 153 140 132 124 82 53 50 63 76 79 78 77 74 73 70 66 61 73 77 75 76 76 73 70 66 62 57 52 48 45 41 38
30 27 21 27 48 105 158 175 171 163 161 159 144 147 152 155 119 56 56 72 79 81 79 75 75 73 71 65 60 65 70 69 70 69 66 62 57 52 47 43 40 35 32
35 35 34 35 43 51 104 148 158 152 157 160 140 83 96 131 139 125 73 65 74 77 76 78 74 69 67 65 68 73 70 65 63 61 59 55 52 49 44 40 36 32 29
35 35 40 44 46 47 57 82 97 103 130 140 132 116 93 83 98 129 136 123 83 62 66 70 73 71 63 61 59 71 70 64 58 54 52 48 46 45 41 38 35 31 28
32 32 39 43 47 48 52 65 76 84 92 97 95 97 125 138 140 126 132 135 117 80 63 60 64 64 56 47 54 69 66 60 53 47 42 39 38 38 36 33 31 29 27
37 32 39 43 47 52 56 65 72 71 78 88 87 80 75 78 117 119 126 126 110 87 73 59 43 49 56 42 21 29 42 41 36 31 30 27 28 30 30 27 26 25 23
46 42 48 51 51 56 60 63 67 67 70 74 74 73 71 59 82 112 128 134 119 87 69 64 20 26 32 21 342 358 2 2 357 355 356 360 8 17 19 21 21 20 19
55 53 55 56 55 57 60 65 67 67 71 68 69 70 68 59 64 75 103 126 132 133 125 146 63 12 4 3 332 341 329 323 330 334 333 327 343 357 0 8 11 12 13
53 56 58 58 58 57 60 65 64 62 68 63 65 68 64 62 65 70 82 80 94 121 127 138 99 17 10 20 28 0 324 328 341 346 346 341 336 337 350 355 0 3 8
57 58 58 60 60 58 59 65 64 64 67 63 61 68 65 63 70 69 75 79 81 97 114 100 60 29 38 32 15 8 2 354 347 353 4 16 13 359 352 354 356 357 2
58 59 60 60 61 60 59 63 67 64 67 65 62 66 63 68 65 62 70 74 75 79 113 111 66 37 37 20 4 10 12 14 360 4 15 16 13 357 330 329 342 350 346
59 59 62 62 61 62 63 64 68 67 66 65 63 65 62 70 68 67 72 75 75 79 85 104 82 42 33 19 13 11 9 360 357 11 11 8 4 351 329 317 302 305 312
61 60 61 62 62 63 66 69 70 69 67 64 62 63 62 66 72 75 78 81 87 86 86 91 82 52 34 11 26 16 0 356 346 354 360 358 355 346 336 322 306 294 292
61 61 63 59 55 57 63 73 73 73 70 65 57 54 58 63 66 69 87 95 97 94 91 86 76 56 33 21 19 352 343 329 323 350 331 339 340 328 321 316 304 294 289
56 59 57 59 54 53 67 76 81 74 69 65 57 49 52 48 51 59 74 88 107 113 113 103 94 91 355 306 317 340 343 350 333 359 330 314 329 303 299 294 297 295 287
58 57 52 57 56 50 68 78 79 78 71 63 57 50 48 41 48 59 63 65 65 80 121 138 149 190 215 218 215 290 279 285 283 316 325 302 313 295 296 298 307 298 288
60 56 51 52 55 47 64 81 82 76 71 62 56 54 55 40 42 60 68 63 56 50 61 156 203 225 234 226 211 245 279 279 273 260 253 288 309 298 304 301 302 302 295
65 57 52 51 54 39 55 79 84 79 70 55 45 45 50 47 40 60 70 63 48 22 16 15 255 258 257 241 200 189 221 322 327 306 232 272 301 307 298 292 300 308 302
74 70 60 48 50 43 50 73 82 83 71 53 36 29 35 36 37 57 71 65 43 0 351 359 10 7 3 342 189 200 212 228 282 290 237 252 293 315 306 292 298 311 311